Simultaneous Nadir Overpasses (SNOs) Predictions

Prediction of SNOs between LANDSAT-8 and NOAA-19 Satellite Orbit:

Table of predicted SNOs for the next 14.0 days since TLE Epoch: 10/12/2019
Index Date (LANDSAT-8) Time (LANDSAT-8) Lat,Lon (LANDSAT-8) SZA (LANDSAT-8 ) Date (NOAA-19) Time (NOAA-19) Lat,Lon (NOAA-19) SZA (NOAA-19 ) Distance(km) Time Diff (sec)
1 10/13/2019 09:11:42 79.16, 63.81 87.84 10/13/2019 09:10:45 79.17, 63.76 87.83 2.06 57
2 10/13/2019 10:01:10 -79.12,-128.76 92.20 10/13/2019 10:01:47 -79.14,-128.76 92.17 2.34 37
3 10/15/2019 14:45:26 -79.20, 160.61 91.27 10/15/2019 14:44:14 -79.29, 159.47 91.30 25.88 72
4 10/15/2019 15:34:53 79.15, -32.02 88.68 10/15/2019 15:35:07 79.16, -32.11 88.69 1.99 14
5 10/17/2019 21:08:38 -79.15, 64.54 90.50 10/17/2019 21:08:33 -79.17, 64.54 90.48 1.59 5
6 10/20/2019 02:42:21 79.18, 161.26 90.36 10/20/2019 02:41:52 79.18, 161.19 90.35 1.39 29
7 10/20/2019 03:31:49 -79.15, -31.29 89.68 10/20/2019 03:32:55 -79.14, -31.21 89.66 1.93 66
8 10/22/2019 08:16:06 -79.17,-102.19 88.85 10/22/2019 08:15:19 -79.19,-102.21 88.85 2.26 47
9 10/22/2019 09:05:32 79.17, 65.41 91.16 10/22/2019 09:06:14 79.16, 65.33 91.16 1.69 42
10 10/24/2019 13:49:49 79.19, -5.51 91.97 10/24/2019 13:48:37 79.20, -5.51 91.95 1.03 72




NCC Satellite Simultaneous Nadir Overpasses (SNOs) Prediction Service
